Location: Chapelle-Spinasse
(45.3597°N, 2.0425°E)
Time: 02:21:26
(UTC+00:00)

Daily predictions for brighter satellites

Satellite Brightness Start Highest point End
(mag) Time Altitude Azimuth Time Altitude Azimuth Time Altitude Azimuth
ATLAS 3B R/B 4.0 03:30:35 31° NNE 03:31:21 32° NE 03:37:34 10° E
Lacrosse 4 Rocket 4.3 03:38:11 15° ESE 03:38:11 15° ESE 03:39:06 10° ESE
ALOS 4.1 03:50:35 10° NNE 03:53:17 27° ENE 03:53:17 27° ENE
NOSS 3-2 (C) 3.9 04:00:07 79° SW 04:00:07 79° SW 04:08:33 10° SSE
NOSS 3-4 (A) 3.7 04:00:50 63° ESE 04:00:50 63° ESE 04:06:44 10° NE
NOSS 3-4 (C) 3.7 04:00:54 63° ESE 04:00:54 63° ESE 04:06:52 10° NE
CENTAUR R/B 3.0 04:01:35 77° W 04:01:59 78° SW 04:10:51 10° SSE
Milstar 3 Cent rocket 4.4 04:00:16 21° S 04:02:14 23° SSE 04:10:14 10° ESE
SL-4 R/B 4.4 04:15:02 17° NE 04:15:02 17° NE 04:16:07 10° NE
Cosmos 1151 Rocket 4.4 04:17:01 35° ESE 04:17:01 35° ESE 04:19:54 10° SSE
ATLAS 2AS CENTAUR R/B 3.2 04:15:30 28° SSW 04:20:04 72° ESE 04:27:55 10° NE
Cosmos 1680 Rocket 4.5 04:20:02 32° NNE 04:22:00 45° ENE 04:27:05 10° SE
Atlas Centaur 2 4.3 04:26:40 17° SSW 04:28:16 18° S 04:32:13 10° SE
ATLAS 5 CENTAUR R/B 4.3 04:31:19 14° NNE 04:31:19 14° NNE 04:31:42 10° NNE
RESURS DK-1 4.3 04:27:23 10° SSE 04:30:59 29° ESE 04:34:36 10° NE
ATLAS CENTAUR R/B 3.0 04:32:06 27° NE 04:32:06 27° NE 04:35:25 10° ESE
Lacrosse 5 1.9 04:32:03 75° SE 04:32:07 75° SE 04:37:11 10° NE
ADEOS 3.7 04:29:35 10° NNE 04:34:50 75° ESE 04:40:03 10° S
Cosmos 1328 Rocket 3.8 04:35:39 65° ENE 04:35:50 66° E 04:40:14 10° SSE
Cosmos 2263 Rocket 2.6 04:43:11 45° NNW 04:43:11 45° NNW 04:47:40 10° NNE
Gbstr 26 Del rocket 3.3 04:43:34 52° E 04:43:34 52° E 04:46:42 10° ESE
SJ 16-02 2.0 04:45:52 45° N 04:45:52 45° N 04:49:01 10° NNE
Cosmos 1898 Rocket 4.2 04:46:55 10° S 04:52:06 56° ESE 04:57:19 10° NNE
Meteor 1-26 Rocket 4.1 04:48:59 17° NNW 04:53:30 82° W 04:59:05 10° S
FALCON 9 DEB 4.1 04:56:35 42° ENE 04:56:35 42° ENE 04:58:51 10° ENE
FALCON 9 DEB 4.1 04:56:45 41° ENE 04:56:45 41° ENE 04:58:58 10° ENE
FENGYUN 3A 3.6 04:54:21 10° N 04:59:43 61° WNW 05:05:00 10° SSW
Cosmos 1408 Rocket 3.5 04:57:15 10° S 05:01:43 85° E 05:06:12 10° N
Cosmos 2181 Rocket 3.8 04:58:30 10° NNW 05:04:39 68° W 05:10:44 10° S
COSMO-SKYMED 1 2.5 05:01:03 10° SSE 05:05:23 90° E 05:08:00 24° NNW
USA 307 4.3 05:05:07 25° N 05:05:32 26° N 05:09:11 10° ENE
Cosmos 1709 Rocket 4.2 05:00:20 10° SSW 05:06:28 48° WNW 05:12:39 10° N
Cosmos 1937 Rocket 4.1 05:04:09 10° S 05:09:10 57° ESE 05:14:16 10° NNE
USA 308 4.3 05:11:14 25° NNW 05:11:57 26° N 05:15:35 10° ENE
Meteor 2-3 Rocket 3.8 05:08:08 10° SSW 05:13:44 56° WNW 05:19:27 10° N
Lacrosse 4 Rocket 2.3 05:14:32 32° SW 05:14:32 32° SW 05:17:55 10° S
CZ-4C R/B 1.9 05:11:05 19° SW 05:14:46 85° NW 05:20:44 10° NE
MOS 1 Rocket 4.2 05:11:12 10° SE 05:15:51 51° ENE 05:20:49 10° N
Cosmos 1943 4.1 05:17:53 27° WSW 05:17:53 27° WSW 05:22:06 10° SSW
CZ-4B R/B 3.0 05:13:49 10° NNE 05:18:21 90° SSW 05:22:44 10° SSW
Cosmos 1689 Rocket 1.9 05:15:33 10° SSE 05:18:12 74° S 05:18:12 74° S
FALCON 9 DEB 2.8 05:18:33 69° NNW 05:18:33 69° NNW 05:21:42 10° NE
SAR-Lupe-4 3.6 05:18:45 10° S 05:22:14 53° WSW 05:22:38 49° WNW
ATLAS 3B R/B 2.7 05:17:51 22° NW 05:22:43 80° WSW 05:29:57 10° SSE
Aureole 2 Rocket 3.8 05:20:57 10° SSE 05:23:10 28° ESE 05:25:27 10° NE
Cosmos 1862 3.6 05:22:28 10° S 05:26:30 68° E 05:30:32 10° NNE
Genesis I 3.0 05:24:54 19° SW 05:27:33 81° NW 05:31:26 10° NE
YAOGAN 6 4.2 05:25:43 10° NNE 05:28:58 35° E 05:32:11 10° SSE
deb Chang Zheng 4 3.9 05:27:59 10° N 05:32:04 41° WNW 05:36:09 10° SW
ALOS 3.1 05:28:12 10° N 05:31:45 28° WNW 05:31:45 28° WNW
Cosmos 858 Rocket 4.5 05:28:13 10° SSW 05:33:26 90° ESE 05:38:43 10° NNE
Cosmos 990 Rocket 4.0 05:29:39 10° SW 05:34:48 57° WNW 05:40:00 10° NNE
Cosmos 2074 Rocket 3.9 05:30:11 10° SSW 05:36:21 71° W 05:42:34 10° N
PSLV R/B 4.2 05:34:02 10° NNE 05:37:53 63° ESE 05:41:37 10° S
ASTRO F (AKARI) 4.1 05:36:44 10° NNE 05:39:51 86° ESE 05:42:59 10° SSW
USA 305 4.3 05:38:55 19° NNW 05:41:01 28° N 05:44:46 10° ENE
BREEZE M DEB (TANK) 3.6 05:32:27 10° SW 05:41:16 53° SSE 05:44:14 10° ENE
Meteor 1-31 Rocket 4.1 05:38:35 10° NNW 05:40:29 21° NW 05:40:29 21° NW
Cosmos 405 Rocket 2.5 05:38:36 10° S 05:42:18 88° WNW 05:46:04 10° N
EO 1 Delta rocket 3.8 05:41:35 10° S 05:46:39 70° W 05:51:16 10° NNW
Cosmos 1812 2.6 05:43:39 10° NNW 05:47:29 73° W 05:51:18 10° S
USA 306 4.2 05:47:01 17° NW 05:49:31 29° NNE 05:53:19 10° ENE
Cosmos 2228 Rocket 3.0 05:45:36 10° NNW 05:50:01 73° W 05:54:24 10° S
Cosmos 1515 Rocket 4.2 05:46:48 12° NNW 05:50:28 35° W 05:54:30 10° SSW
CENTAUR R/B 4.3 05:48:50 17° W 05:51:52 21° WSW 05:57:52 10° SSW
NOSS 3-4 (A) 4.2 05:48:19 18° W 05:51:52 32° NW 05:57:38 10° NNE
NOSS 3-4 (C) 4.2 05:48:24 18° W 05:52:00 33° NW 05:57:46 10° NNE
PSLV R/B 4.5 05:48:17 10° SSW 05:52:09 37° W 05:55:47 11° NNW
SL-4 R/B 2.9 05:50:37 20° NW 05:52:38 31° N 05:55:58 10° ENE
Cosmos 1782 3.9 05:52:15 21° WNW 05:53:19 23° W 05:56:32 10° SW
DMSP B5D1-3 4.5 05:48:12 10° S 05:53:21 79° WSW 05:58:33 10° NNW
SKYMED 2 4.5 05:49:53 10° SSW 05:53:38 28° W 05:56:36 14° NW
Cosmos 2184 Rocket 4.1 05:47:46 10° SSW 05:53:55 55° WNW 06:00:12 10° N
USA-17 4.4 05:51:00 10° SW 05:54:39 53° NW 05:57:43 10° NNE
ERS-2 4.4 05:53:51 10° WSW 05:53:52 10° WSW 05:53:52 10° WSW
FALCON 9 DEB 3.7 05:56:58 22° WNW 05:58:26 35° NNW 06:01:26 10° NE
USA 234 3.8 05:52:39 10° NE 05:59:08 62° SE 06:05:36 10° SW
Spot 2 4.5 05:55:05 10° NNE 06:00:17 83° WNW 06:05:20 10° SSW
Cosmos 1844 Rocket 2.8 05:54:56 10° SW 06:00:27 55° WNW 06:06:03 10° NNE
EXPRESS MD2 4.1 06:03:36 16° WNW 06:06:44 73° NNE 06:14:33 10° ESE
Cosmos 1707 Rocket 4.0 06:02:44 10° N 06:07:03 65° E 06:11:20 10° SSE
COSMOS 2455 2.9 06:02:31 10° SSW 06:08:34 86° ESE 06:14:38 10° NNE
RESURS DK-1 3.2 06:05:18 10° WSW 06:08:58 29° NW 06:12:40 10° N
MOS 1-B 4.4 06:03:22 10° NNE 06:09:13 87° ESE 06:15:02 10° SSW
BREEZE-M (TANK) 4.3 06:02:14 10° SW 06:09:54 39° SSE 06:12:39 10° E
ATLAS CENTAUR R/B 2.0 06:08:19 15° WNW 06:10:58 33° WSW 06:14:34 10° S
BREEZE-M DEB 3.9 06:02:56 13° WNW 06:11:21 55° SW 06:14:28 10° SE
ATLAS 2AS CENTAUR R/B 3.5 06:04:22 10° WSW 06:11:42 38° NW 06:18:53 10° NNE
NOAA 6 4.0 06:07:12 10° NNE 06:12:20 80° WNW 06:17:26 10° SSW
Cosmos 1500 Rocket 4.2 06:09:47 10° SW 06:13:40 32° WNW 06:17:36 10° N
Cosmos 1844 3.8 06:08:58 10° SW 06:14:23 52° WNW 06:19:51 10° NNE
H-2A R/B 3.3 06:11:17 10° N 06:14:53 36° WNW 06:18:26 10° SW
Lacrosse 5 2.7 06:11:17 12° W 06:15:29 33° NNW 06:20:04 10° NE
Atlas Centaur 2 4.3 06:12:51 10° SW 06:16:20 16° SSW 06:19:25 10° SSE
CZ-4B DEB 4.2 06:12:02 10° N 06:17:30 72° WNW 06:22:56 10° SSW
Cosmos 1437 Rocket 2.8 06:13:55 10° NNW 06:17:37 52° W 06:21:17 10° S
Cosmos 372 Rocket 3.9 06:12:46 10° SSW 06:17:51 73° WNW 06:22:58 10° NNE
Okean O Rocket 1.9 06:16:36 10° NNE 06:21:04 74° ESE 06:25:30 10° S
Cosmos 1242 Rocket 4.2 06:19:12 10° N 06:22:36 36° ENE 06:26:00 10° SE
SJ 16-02 3.3 06:22:57 10° WNW 06:23:55 11° NW 06:24:59 10° NW
PAYLOAD B 4.2 06:18:25 10° NNE 06:23:57 77° WNW 06:29:25 10° SSW
USA 81 4.1 06:18:44 10° S 06:24:00 88° E 06:29:18 10° N
SMAP 3.1 06:20:05 10° NNE 06:24:47 89° WNW 06:29:26 10° SSW
Cosmos 2263 Rocket 4.0 06:25:24 10° WNW 06:27:29 12° NW 06:29:33 10° NNW
Gbstr 26 Del rocket 4.2 06:26:20 10° W 06:29:23 24° SW 06:32:40 10° SSE
ATLAS 5 CENTAUR R/B 2.1 06:27:01 10° SSW 06:30:58 60° ESE 06:35:23 10° NE
FALCON 9 DEB 4.2 06:29:10 10° WNW 06:31:57 26° NNW 06:34:45 10° NE
FALCON 9 DEB 4.2 06:29:15 10° WNW 06:32:01 26° NNW 06:34:48 10° NE
Sich 1 3.2 06:29:57 10° SSW 06:34:17 51° WNW 06:38:38 10° N
Cosmos 2218 Rocket 4.3 06:28:09 10° S 06:34:24 74° E 06:40:36 10° NNE
Nadezhda 3 Rocket 4.5 06:29:26 10° NNW 06:35:13 39° W 06:40:55 10° SSW
CZ-2C R/B 2.7 06:29:55 10° S 06:35:25 78° WSW 06:40:50 10° NNW
AQUARIUS 4.1 06:34:01 10° N 06:38:30 72° WNW 06:42:58 10° SSW
Cosmos 2366 rocket 4.3 06:32:27 10° S 06:38:46 77° E 06:45:03 10° N
H-2A R/B 2.8 06:35:20 10° N 06:38:54 37° WNW 06:42:26 10° SW
Envisat 3.4 06:34:16 10° N 06:39:03 42° WNW 06:43:48 10° SW
